• MPC Preparation (Info)

  • MPEC 2010-V07 : 2010 TL117

    The following Minor Planet Electronic Circular may be linked-to from your own Web pages, but must not otherwise be redistributed electronically.

    A form allowing access to any MPEC is at the bottom of this page.


    Read MPEC 2010-V06 Read MPEC 2010-V08


    M.P.E.C. 2010-V07                                Issued 2010 Nov. 1, 15:08 UT
    
         The Minor Planet Electronic Circulars contain information on unusual
             minor planets and routine data on comets.  They are published
       on behalf of Commission 20 of the International Astronomical Union by the
              Minor Planet Center, Smithsonian Astrophysical Observatory,
                              Cambridge, MA 02138, U.S.A.
    
                 Prepared using the Tamkin Foundation Computer Network
    
                                  MPC@CFA.HARVARD.EDU
           URL https://www.minorplanetcenter.org/iau/mpc.html  ISSN 1523-6714
    
                                      2010 TL117
    
    Additional Observations:
         K10TB7L  C2010 10 30.34386 01 26 11.40 -02 15 37.6          21.8 w EV007F51
         K10TB7L  C2010 10 30.35791 01 26 10.45 -02 15 59.7          21.7 w EV007F51
         K10TB7L  C2010 10 30.38620 01 26 08.56 -02 16 43.2          21.9 w EV007F51
         K10TB7L  C2010 10 31.34612 01 25 07.61 -02 41 23.8          21.7 V EV007291
         K10TB7L  C2010 10 31.34975 01 25 07.37 -02 41 29.5          21.7 V EV007291
         K10TB7L HC2010 10 31.35585 01 25 06.97 -02 41 40.4                 EV007291
         K10TB7L  C2010 11 01.16205 01 24 16.98 -03 02 15.2          20.8 R EV007H01
         K10TB7L  C2010 11 01.16710 01 24 16.63 -03 02 23.1          20.7 R EV007H01
         K10TB7L  C2010 11 01.17740 01 24 15.97 -03 02 38.7          20.3 R EV007H01
         K10TB7L  C2010 11 01.18899 01 24 15.21 -03 02 56.3          20.7 R EV007H01
         K10TB7L  C2010 11 01.23859 01 24 11.99 -03 04 11.5          21.5 V EV007291
         K10TB7L  C2010 11 01.24229 01 24 11.73 -03 04 17.7          21.6 V EV007291
         K10TB7L  C2010 11 01.24597 01 24 11.51 -03 04 22.5          21.5 V EV007291
    
    Observer details:
    291 LPL/Spacewatch II.  Observer T. H. Bressi.  1.8-m f/2.7 reflector + CCD.
    F51 Pan-STARRS 1, Haleakala.  Observers N. Primak, A. Schultz, S. Watters,
        J. Thiel, T. Goggia.  Measurer P. 1 Science Consortium.  1.8-m
        Ritchey-Chretien + CCD.
    H01 Magdalena Ridge Observatory, Socorro.  Observer W. H. Ryan.  2.4-m f/8.9
        reflector + CCD.
    
    Orbital elements:
    2010 TL117                                               Earth MOID = 0.3819 AU
    Epoch 2010 July 23.0 TT = JDT 2455400.5                 MPC
    M 296.05553              (2000.0)            P               Q
    n   0.25960194     Peri.  288.89129     -0.55996853     -0.81937947
    a   2.4336835      Node   196.95261     +0.82499945     -0.56507073
    e   0.5144022      Incl.   24.88330     -0.07623093     -0.09650057
    P   3.80           H   19.5           G   0.15           U   6
    Residuals in seconds of arc
    101009 G96  0.3+  0.2-    101030 F51  0.2+  0.1+    101101 H01  0.2-  0.3-
    101009 G96  0.5+  0.4-    101030 F51  0.1+  0.2-    101101 H01  0.0   0.1-
    101009 G96  0.0   0.1-    101030 F51  0.2+  0.0     101101 H01  0.0   0.0
    101009 G96  0.1+  0.1-    101031 291  0.0   0.4+    101101 291  0.1-  0.3+
    101011 691  0.5-  0.2-    101031 291  0.0   0.3+    101101 291  0.3-  0.2-
    101011 691  0.6-  0.5-    101031 291  0.0   1.2-    101101 291  0.0   0.6+
    101011 691  0.8+  0.9+    101101 H01  0.1+  0.1-
    
    Ephemeris:
    2010 TL117               a,e,i = 2.43, 0.51, 25                  q = 1.1818
    Date    TT    R. A. (2000) Decl.     Delta      r     Elong.  Phase     V
    2010 10 31    01 25.50   -02 32.4    0.937    1.897   158.7    11.0    21.4
    2010 11 10    01 15.70   -06 37.1    0.929    1.831   145.1    18.0    21.6
    2010 11 20    01 08.45   -10 03.8    0.942    1.765   132.3    24.5    21.7
    2010 11 30    01 04.88   -12 40.9    0.970    1.699   120.6    30.0    21.9
    2010 12 10    01 05.51   -14 26.9    1.006    1.634   110.3    34.4    22.0
    2010 12 20    01 10.45   -15 26.6    1.044    1.569   101.3    37.9    22.1
    2010 12 30    01 19.42   -15 47.5    1.080    1.507    93.6    40.6    22.2
    2011 01 09    01 32.11   -15 35.8    1.111    1.446    87.1    42.8    22.2
    2011 01 19    01 48.22   -14 57.2    1.134    1.390    81.7    44.5    22.2
    2011 01 29    02 07.45   -13 55.7    1.148    1.337    77.2    45.9    22.2
    
    Sonia Keys                   (C) Copyright 2010 MPC           M.P.E.C. 2010-V07
    

    Read MPEC 2010-V06 Read MPEC 2010-V08


    MPEC number:

    Enter an MPEC number in one of the following forms:

    • 1997-B01 (the full form)
    • J97B01 (the packed version of the full form)
    • B01 (the abbreviated form)